Time,TemperatureF,DewpointF,PressureIn,WindDirection,WindDirectionDegrees,WindSpeedMPH,WindSpeedGustMPH,Humidity,HourlyPrecipIn,Conditions,Clouds,dailyrainin,SoftwareType,DateUTC
2013-01-13 00:00:00,27.7,23.8,29.98,NW,304,0.0,11.0,85,0.00,,,0.05,VWS V14.01,2013-01-13 06:00:00,
2013-01-13 00:05:00,27.6,23.7,29.98,WNW,297,1.0,9.0,85,0.00,,,0.00,VWS V14.01,2013-01-13 06:05:00,
2013-01-13 00:10:00,27.5,23.6,29.98,WNW,298,2.0,9.0,85,0.00,,,0.00,VWS V14.01,2013-01-13 06:10:00,
2013-01-13 00:15:00,27.5,23.6,29.98,WNW,284,5.0,9.0,85,0.00,,,0.00,VWS V14.01,2013-01-13 06:15:00,
2013-01-13 00:20:00,27.4,23.2,29.99,NW,313,4.0,12.0,84,0.00,,,0.00,VWS V14.01,2013-01-13 06:20:00,
2013-01-13 00:25:00,27.3,23.1,30.00,NW,308,1.0,12.0,84,0.00,,,0.00,VWS V14.01,2013-01-13 06:25:00,
2013-01-13 00:30:00,27.3,23.4,30.00,NW,307,0.0,12.0,85,0.00,,,0.00,VWS V14.01,2013-01-13 06:30:00,
2013-01-13 00:35:00,27.3,23.7,30.00,SW,235,6.0,6.0,86,0.00,,,0.00,VWS V14.01,2013-01-13 06:35:00,
2013-01-13 00:40:00,27.2,23.3,30.01,West,281,0.0,6.0,85,0.00,,,0.00,VWS V14.01,2013-01-13 06:40:00,
2013-01-13 00:45:00,27.1,22.9,30.00,West,279,4.0,6.0,84,0.00,,,0.00,VWS V14.01,2013-01-13 06:45:00,
2013-01-13 00:50:00,27.0,22.8,30.00,West,275,2.0,8.0,84,0.00,,,0.00,VWS V14.01,2013-01-13 06:50:00,
2013-01-13 00:55:00,26.8,22.6,30.01,WNW,290,5.0,8.0,84,0.00,,,0.00,VWS V14.01,2013-01-13 06:55:00,
2013-01-13 01:00:00,26.7,22.5,30.00,NW,320,4.0,8.0,84,0.00,,,0.00,VWS V14.01,2013-01-13 07:00:00,
2013-01-13 01:05:00,26.6,22.1,30.00,WNW,297,0.0,7.0,83,0.00,,,0.00,VWS V14.01,2013-01-13 07:05:00,
2013-01-13 01:10:00,26.5,22.3,30.01,WNW,292,4.0,7.0,84,0.00,,,0.00,VWS V14.01,2013-01-13 07:10:00,
2013-01-13 01:15:00,26.4,22.0,30.00,WNW,300,4.0,8.0,83,0.00,,,0.00,VWS V14.01,2013-01-13 07:15:00,
2013-01-13 01:20:00,26.3,22.1,29.99,WNW,294,1.0,8.0,84,0.00,,,0.00,VWS V14.01,2013-01-13 07:20:00,
2013-01-13 01:25:00,26.3,22.1,29.99,NNE,22,0.0,8.0,84,0.00,,,0.00,VWS V14.01,2013-01-13 07:25:00,
2013-01-13 01:30:00,26.2,22.0,30.00,SE,137,2.0,2.0,84,0.00,,,0.00,VWS V14.01,2013-01-13 07:30:00,
2013-01-13 01:35:00,26.1,21.6,30.00,NW,310,2.0,5.0,83,0.00,,,0.00,VWS V14.01,2013-01-13 07:35:00,
2013-01-13 01:40:00,26.0,21.6,30.01,WNW,300,2.0,11.0,83,0.00,,,0.00,VWS V14.01,2013-01-13 07:40:00,
2013-01-13 01:45:00,25.9,21.7,30.02,WNW,301,4.0,11.0,84,0.00,,,0.00,VWS V14.01,2013-01-13 07:45:00,
2013-01-13 01:50:00,25.9,21.7,30.03,WNW,283,7.0,11.0,84,0.00,,,0.00,VWS V14.01,2013-01-13 07:50:00,
2013-01-13 01:55:00,25.8,21.6,30.02,WNW,302,5.0,11.0,84,0.00,,,0.00,VWS V14.01,2013-01-13 07:55:00,
2013-01-13 02:00:00,25.8,21.4,30.03,WNW,297,4.0,6.0,83,0.00,,,0.00,VWS V14.01,2013-01-13 08:00:00,
2013-01-13 02:05:00,25.7,21.3,30.03,NW,306,4.0,9.0,83,0.00,,,0.00,VWS V14.01,2013-01-13 08:05:00,
2013-01-13 02:10:00,25.6,21.2,30.03,WNW,293,9.0,11.0,83,0.00,,,0.00,VWS V14.01,2013-01-13 08:10:00,
2013-01-13 02:15:00,25.5,21.1,30.03,WNW,298,5.0,11.0,83,0.00,,,0.00,VWS V14.01,2013-01-13 08:15:00,
2013-01-13 02:20:00,25.4,21.0,30.02,West,274,6.0,11.0,83,0.00,,,0.00,VWS V14.01,2013-01-13 08:20:00,
2013-01-13 02:25:00,25.3,20.6,30.03,West,281,4.0,13.0,82,0.00,,,0.00,VWS V14.01,2013-01-13 08:25:00,
2013-01-13 02:30:00,25.2,20.5,30.04,WNW,292,4.0,4.0,82,0.00,,,0.00,VWS V14.01,2013-01-13 08:30:00,
2013-01-13 02:35:00,25.2,20.5,30.04,WNW,293,4.0,6.0,82,0.00,,,0.00,VWS V14.01,2013-01-13 08:35:00,
2013-01-13 02:40:00,25.1,20.4,30.04,WNW,285,9.0,9.0,82,0.00,,,0.00,VWS V14.01,2013-01-13 08:40:00,
2013-01-13 02:45:00,24.9,19.9,30.05,WNW,300,5.0,18.0,81,0.00,,,0.00,VWS V14.01,2013-01-13 08:45:00,
2013-01-13 02:50:00,24.9,19.9,30.05,WNW,298,7.0,18.0,81,0.00,,,0.00,VWS V14.01,2013-01-13 08:50:00,
2013-01-13 02:55:00,24.8,19.8,30.06,WNW,292,0.0,18.0,81,0.00,,,0.00,VWS V14.01,2013-01-13 08:55:00,
2013-01-13 03:00:00,24.8,19.8,30.06,North,350,4.0,6.0,81,0.00,,,0.00,VWS V14.01,2013-01-13 09:00:00,
2013-01-13 03:05:00,24.8,20.1,30.07,West,261,2.0,9.0,82,0.00,,,0.00,VWS V14.01,2013-01-13 09:05:00,
2013-01-13 03:11:00,24.8,20.1,30.07,WNW,288,0.0,11.0,82,0.00,,,0.00,VWS V14.01,2013-01-13 09:11:00,
2013-01-13 03:16:00,24.8,20.1,30.07,NNE,28,0.0,11.0,82,0.00,,,0.00,VWS V14.01,2013-01-13 09:16:00,
2013-01-13 03:21:00,24.7,19.7,30.07,NE,38,1.0,12.0,81,0.00,,,0.00,VWS V14.01,2013-01-13 09:21:00,
2013-01-13 03:26:00,24.7,19.7,30.09,NW,312,1.0,12.0,81,0.00,,,0.00,VWS V14.01,2013-01-13 09:26:00,
2013-01-13 03:31:00,24.6,19.3,30.10,WSW,257,0.0,3.0,80,0.00,,,0.00,VWS V14.01,2013-01-13 09:31:00,
2013-01-13 03:36:00,24.6,19.3,30.09,NNE,21,3.0,8.0,80,0.00,,,0.00,VWS V14.01,2013-01-13 09:36:00,
2013-01-13 03:41:00,24.5,19.2,30.08,WNW,294,0.0,8.0,80,0.00,,,0.00,VWS V14.01,2013-01-13 09:41:00,
2013-01-13 03:46:00,24.5,19.2,30.08,WNW,299,5.0,9.0,80,0.00,,,0.00,VWS V14.01,2013-01-13 09:46:00,
2013-01-13 03:51:00,24.4,19.1,30.06,WSW,240,0.0,9.0,80,0.00,,,0.00,VWS V14.01,2013-01-13 09:51:00,
2013-01-13 03:56:00,24.3,19.0,30.05,North,9,0.0,9.0,80,0.00,,,0.00,VWS V14.01,2013-01-13 09:56:00,
2013-01-13 04:01:00,24.3,19.0,30.07,ESE,109,2.0,6.0,80,0.00,,,0.00,VWS V14.01,2013-01-13 10:01:00,
2013-01-13 04:06:00,24.3,19.0,30.08,ENE,70,0.0,6.0,80,0.00,,,0.00,VWS V14.01,2013-01-13 10:06:00,
2013-01-13 04:11:00,24.3,19.0,30.08,WNW,285,5.0,7.0,80,0.00,,,0.00,VWS V14.01,2013-01-13 10:11:00,
2013-01-13 04:16:00,24.2,18.9,30.09,WNW,291,4.0,7.0,80,0.00,,,0.00,VWS V14.01,2013-01-13 10:16:00,
2013-01-13 04:21:00,24.1,18.5,30.08,NE,55,1.0,7.0,79,0.00,,,0.00,VWS V14.01,2013-01-13 10:21:00,
2013-01-13 04:26:00,24.0,18.5,30.08,WNW,284,6.0,11.0,79,0.00,,,0.00,VWS V14.01,2013-01-13 10:26:00,
2013-01-13 04:31:00,24.0,18.5,30.08,WNW,290,2.0,5.0,79,0.00,,,0.00,VWS V14.01,2013-01-13 10:31:00,
2013-01-13 04:36:00,23.9,18.4,30.08,West,261,0.0,5.0,79,0.00,,,0.00,VWS V14.01,2013-01-13 10:36:00,
2013-01-13 04:41:00,23.9,18.4,30.08,WNW,285,4.0,8.0,79,0.00,,,0.00,VWS V14.01,2013-01-13 10:41:00,
2013-01-13 04:46:00,23.8,18.2,30.08,NW,305,1.0,8.0,79,0.00,,,0.00,VWS V14.01,2013-01-13 10:46:00,
2013-01-13 04:51:00,23.8,18.2,30.08,WNW,299,1.0,8.0,79,0.00,,,0.00,VWS V14.01,2013-01-13 10:51:00,
2013-01-13 04:56:00,23.8,18.2,30.08,WNW,299,0.0,8.0,79,0.00,,,0.00,VWS V14.01,2013-01-13 10:56:00,
2013-01-13 05:01:00,23.7,18.1,30.08,NW,304,0.0,1.0,79,0.00,,,0.00,VWS V14.01,2013-01-13 11:01:00,
2013-01-13 05:06:00,23.7,18.5,30.06,WNW,287,1.0,4.0,80,0.00,,,0.00,VWS V14.01,2013-01-13 11:06:00,
2013-01-13 05:11:00,23.7,20.4,30.04,NNE,26,0.0,5.0,87,0.00,,,0.00,VWS V14.01,2013-01-13 11:11:00,
2013-01-13 05:16:00,23.7,18.5,30.05,SSW,196,1.0,5.0,80,0.00,,,0.00,VWS V14.01,2013-01-13 11:16:00,
2013-01-13 05:21:00,23.7,18.5,30.07,WNW,290,2.0,5.0,80,0.00,,,0.00,VWS V14.01,2013-01-13 11:21:00,
2013-01-13 05:26:00,23.6,18.4,30.08,WNW,291,2.0,6.0,80,0.00,,,0.00,VWS V14.01,2013-01-13 11:26:00,
2013-01-13 05:31:00,23.6,18.1,30.09,WNW,293,4.0,5.0,79,0.00,,,0.00,VWS V14.01,2013-01-13 11:31:00,
2013-01-13 05:36:00,23.5,17.7,30.09,WNW,298,2.0,7.0,78,0.00,,,0.00,VWS V14.01,2013-01-13 11:36:00,
2013-01-13 05:41:00,23.5,18.0,30.07,NW,308,2.0,7.0,79,0.00,,,0.00,VWS V14.01,2013-01-13 11:41:00,
2013-01-13 05:46:00,23.4,17.6,30.08,NW,306,2.0,7.0,78,0.00,,,0.00,VWS V14.01,2013-01-13 11:46:00,
2013-01-13 05:51:00,23.4,17.6,30.08,NW,316,0.0,7.0,78,0.00,,,0.00,VWS V14.01,2013-01-13 11:51:00,
2013-01-13 05:56:00,23.3,17.5,30.07,West,275,2.0,9.0,78,0.00,,,0.00,VWS V14.01,2013-01-13 11:56:00,
2013-01-13 06:01:00,23.2,17.1,30.10,North,5,2.0,9.0,77,0.00,,,0.00,VWS V14.01,2013-01-13 12:01:00,
2013-01-13 06:06:00,23.2,17.1,30.09,WNW,302,2.0,9.0,77,0.00,,,0.00,VWS V14.01,2013-01-13 12:06:00,
2013-01-13 06:11:00,23.1,17.0,30.09,NW,304,5.0,9.0,77,0.00,,,0.00,VWS V14.01,2013-01-13 12:11:00,
2013-01-13 06:16:00,23.1,17.0,30.10,West,279,1.0,9.0,77,0.00,,,0.00,VWS V14.01,2013-01-13 12:16:00,
2013-01-13 06:21:00,23.0,16.9,30.10,West,276,0.0,9.0,77,0.00,,,0.00,VWS V14.01,2013-01-13 12:21:00,
2013-01-13 06:26:00,23.0,16.9,30.12,WNW,284,0.0,9.0,77,0.00,,,0.00,VWS V14.01,2013-01-13 12:26:00,
2013-01-13 06:31:00,23.0,16.9,30.11,West,280,0.0,7.0,77,0.00,,,0.00,VWS V14.01,2013-01-13 12:31:00,
2013-01-13 06:36:00,22.9,16.5,30.12,WNW,284,1.0,7.0,76,0.00,,,0.00,VWS V14.01,2013-01-13 12:36:00,
2013-01-13 06:41:00,22.9,16.2,30.12,WNW,286,6.0,8.0,75,0.00,,,0.00,VWS V14.01,2013-01-13 12:41:00,
2013-01-13 06:46:00,22.9,16.5,30.10,WNW,293,0.0,8.0,76,0.00,,,0.00,VWS V14.01,2013-01-13 12:46:00,
2013-01-13 06:51:00,22.8,16.4,30.14,WNW,288,0.0,8.0,76,0.00,,,0.00,VWS V14.01,2013-01-13 12:51:00,
2013-01-13 06:56:00,22.8,16.4,30.12,WNW,297,0.0,10.0,76,0.00,,,0.00,VWS V14.01,2013-01-13 12:56:00,
2013-01-13 07:01:00,22.7,16.3,30.11,East,92,0.0,0.0,76,0.00,,,0.00,VWS V14.01,2013-01-13 13:01:00,
2013-01-13 07:06:00,22.7,16.6,30.13,WNW,286,0.0,6.0,77,0.00,,,0.00,VWS V14.01,2013-01-13 13:06:00,
2013-01-13 07:11:00,22.7,16.6,30.15,WNW,302,2.0,6.0,77,0.00,,,0.00,VWS V14.01,2013-01-13 13:11:00,
2013-01-13 07:16:00,22.7,16.6,30.15,WSW,252,3.0,6.0,77,0.00,,,0.00,VWS V14.01,2013-01-13 13:16:00,
2013-01-13 07:21:00,22.7,16.6,30.15,West,264,0.0,6.0,77,0.00,,,0.00,VWS V14.01,2013-01-13 13:21:00,
2013-01-13 07:26:00,22.6,16.5,30.16,NW,312,4.0,7.0,77,0.00,,,0.00,VWS V14.01,2013-01-13 13:26:00,
2013-01-13 07:31:00,22.6,16.2,30.15,West,269,2.0,3.0,76,0.00,,,0.00,VWS V14.01,2013-01-13 13:31:00,
2013-01-13 07:37:00,22.6,16.5,30.12,West,269,1.0,3.0,77,0.00,,,0.00,VWS V14.01,2013-01-13 13:37:00,
2013-01-13 07:42:00,22.5,16.1,30.18,NW,304,1.0,6.0,76,0.00,,,0.00,VWS V14.01,2013-01-13 13:42:00,
2013-01-13 07:47:00,22.5,16.4,30.18,NW,312,0.0,6.0,77,0.00,,,0.00,VWS V14.01,2013-01-13 13:47:00,
2013-01-13 07:52:00,22.5,16.4,30.18,NW,312,2.0,6.0,77,0.00,,,0.00,VWS V14.01,2013-01-13 13:52:00,
2013-01-13 07:57:00,22.5,16.7,30.18,WSW,252,3.0,6.0,78,0.00,,,0.00,VWS V14.01,2013-01-13 13:57:00,
2013-01-13 08:02:00,22.4,16.6,30.18,West,263,2.0,3.0,78,0.00,,,0.00,VWS V14.01,2013-01-13 14:02:00,
2013-01-13 08:07:00,22.4,16.3,30.16,West,265,1.0,5.0,77,0.00,,,0.00,VWS V14.01,2013-01-13 14:07:00,
2013-01-13 08:12:00,22.3,16.2,30.17,West,265,4.0,6.0,77,0.00,,,0.00,VWS V14.01,2013-01-13 14:12:00,
2013-01-13 08:17:00,22.2,15.8,30.17,WNW,290,0.0,8.0,76,0.00,,,0.00,VWS V14.01,2013-01-13 14:17:00,
2013-01-13 08:22:00,22.2,15.8,30.15,WNW,291,2.0,8.0,76,0.00,,,0.00,VWS V14.01,2013-01-13 14:22:00,
2013-01-13 08:27:00,22.1,15.7,30.15,WNW,303,0.0,8.0,76,0.00,,,0.00,VWS V14.01,2013-01-13 14:27:00,
2013-01-13 08:32:00,22.1,15.7,30.17,West,278,0.0,5.0,76,0.00,,,0.00,VWS V14.01,2013-01-13 14:32:00,
2013-01-13 08:37:00,22.1,15.7,30.16,WNW,294,5.0,5.0,76,0.00,,,0.00,VWS V14.01,2013-01-13 14:37:00,
2013-01-13 08:42:00,22.1,16.0,30.17,West,261,0.0,11.0,77,0.00,,,0.00,VWS V14.01,2013-01-13 14:42:00,
2013-01-13 08:47:00,22.1,15.7,30.16,WNW,286,0.0,11.0,76,0.00,,,0.00,VWS V14.01,2013-01-13 14:47:00,
2013-01-13 08:52:00,22.0,15.9,30.16,WNW,294,2.0,11.0,77,0.00,,,0.00,VWS V14.01,2013-01-13 14:52:00,
2013-01-13 08:57:00,21.9,15.5,30.16,WSW,256,4.0,11.0,76,0.00,,,0.00,VWS V14.01,2013-01-13 14:57:00,
2013-01-13 09:02:00,21.8,15.7,30.15,WNW,288,0.0,2.0,77,0.00,,,0.00,VWS V14.01,2013-01-13 15:02:00,
2013-01-13 09:07:00,21.7,15.6,30.17,WNW,286,2.0,9.0,77,0.00,,,0.00,VWS V14.01,2013-01-13 15:07:00,
2013-01-13 09:12:00,21.6,15.5,30.17,WSW,251,3.0,9.0,77,0.00,,,0.00,VWS V14.01,2013-01-13 15:12:00,
2013-01-13 09:17:00,21.5,15.4,30.16,South,169,0.0,9.0,77,0.00,,,0.00,VWS V14.01,2013-01-13 15:17:00,
2013-01-13 09:22:00,21.4,15.3,30.19,WSW,252,1.0,9.0,77,0.00,,,0.00,VWS V14.01,2013-01-13 15:22:00,
2013-01-13 09:27:00,21.3,14.9,30.16,WNW,286,2.0,9.0,76,0.00,,,0.00,VWS V14.01,2013-01-13 15:27:00,
2013-01-13 09:32:00,21.1,14.7,30.16,WSW,257,1.0,8.0,76,0.00,,,0.00,VWS V14.01,2013-01-13 15:32:00,
2013-01-13 09:37:00,20.9,14.5,30.15,WNW,287,2.0,8.0,76,0.00,,,0.00,VWS V14.01,2013-01-13 15:37:00,
2013-01-13 09:42:00,20.8,14.4,30.16,WNW,296,2.0,13.0,76,0.00,,,0.00,VWS V14.01,2013-01-13 15:42:00,
2013-01-13 09:47:00,20.8,14.7,30.14,WNW,286,1.0,13.0,77,0.00,,,0.00,VWS V14.01,2013-01-13 15:47:00,
2013-01-13 09:52:00,20.7,14.0,30.16,West,281,4.0,13.0,75,0.00,,,0.00,VWS V14.01,2013-01-13 15:52:00,
2013-01-13 09:57:00,20.7,14.4,30.17,WNW,282,4.0,13.0,76,0.00,,,0.00,VWS V14.01,2013-01-13 15:57:00,
2013-01-13 10:02:00,20.6,14.2,30.17,WNW,300,0.0,4.0,76,0.00,,,0.00,VWS V14.01,2013-01-13 16:02:00,
2013-01-13 10:07:00,20.6,13.9,30.17,WNW,295,2.0,8.0,75,0.00,,,0.00,VWS V14.01,2013-01-13 16:07:00,
2013-01-13 10:12:00,20.6,13.9,30.16,WNW,302,0.0,8.0,75,0.00,,,0.00,VWS V14.01,2013-01-13 16:12:00,
2013-01-13 10:17:00,20.6,14.2,30.18,WNW,296,0.0,8.0,76,0.00,,,0.00,VWS V14.01,2013-01-13 16:17:00,
2013-01-13 10:22:00,20.7,14.4,30.18,West,277,1.0,8.0,76,0.00,,,0.00,VWS V14.01,2013-01-13 16:22:00,
2013-01-13 10:27:00,20.7,13.7,30.17,WSW,248,5.0,9.0,74,0.00,,,0.00,VWS V14.01,2013-01-13 16:27:00,
2013-01-13 10:32:00,20.8,13.8,30.18,NW,313,6.0,8.0,74,0.00,,,0.00,VWS V14.01,2013-01-13 16:32:00,
2013-01-13 10:37:00,20.8,14.1,30.19,WNW,298,5.0,8.0,75,0.00,,,0.00,VWS V14.01,2013-01-13 16:37:00,
2013-01-13 10:42:00,20.8,13.8,30.20,NW,323,4.0,11.0,74,0.00,,,0.00,VWS V14.01,2013-01-13 16:42:00,
2013-01-13 10:47:00,20.7,13.4,30.19,WNW,282,1.0,11.0,73,0.00,,,0.00,VWS V14.01,2013-01-13 16:47:00,
2013-01-13 10:52:00,20.7,13.4,30.20,NW,313,1.0,11.0,73,0.00,,,0.00,VWS V14.01,2013-01-13 16:52:00,
2013-01-13 10:57:00,20.6,13.3,30.20,WNW,290,2.0,11.0,73,0.00,,,0.00,VWS V14.01,2013-01-13 16:57:00,
2013-01-13 11:02:00,20.6,13.6,30.19,WNW,286,2.0,7.0,74,0.00,,,0.00,VWS V14.01,2013-01-13 17:02:00,
2013-01-13 11:07:00,20.5,13.2,30.20,West,277,7.0,12.0,73,0.00,,,0.00,VWS V14.01,2013-01-13 17:07:00,
2013-01-13 11:12:00,20.4,13.4,30.21,West,269,1.0,12.0,74,0.00,,,0.00,VWS V14.01,2013-01-13 17:12:00,
2013-01-13 11:17:00,20.5,13.9,30.21,WSW,242,2.0,12.0,75,0.00,,,0.00,VWS V14.01,2013-01-13 17:17:00,
2013-01-13 11:22:00,20.6,13.9,30.21,West,273,5.0,12.0,75,0.00,,,0.00,VWS V14.01,2013-01-13 17:22:00,
2013-01-13 11:27:00,20.4,13.4,30.20,SW,236,2.0,12.0,74,0.00,,,0.00,VWS V14.01,2013-01-13 17:27:00,
2013-01-13 11:32:00,20.4,13.8,30.19,West,271,0.0,4.0,75,0.00,,,0.00,VWS V14.01,2013-01-13 17:32:00,
2013-01-13 11:37:00,20.5,14.1,30.20,West,270,0.0,6.0,76,0.00,,,0.00,VWS V14.01,2013-01-13 17:37:00,
2013-01-13 11:42:00,20.5,14.1,30.18,NW,315,2.0,7.0,76,0.00,,,0.00,VWS V14.01,2013-01-13 17:42:00,
2013-01-13 11:47:00,20.5,13.9,30.18,WNW,297,0.0,8.0,75,0.00,,,0.00,VWS V14.01,2013-01-13 17:47:00,
2013-01-13 11:52:00,20.4,13.8,30.18,WSW,252,3.0,10.0,75,0.00,,,0.00,VWS V14.01,2013-01-13 17:52:00,
2013-01-13 11:57:00,20.5,13.9,30.16,WNW,303,4.0,10.0,75,0.00,,,0.00,VWS V14.01,2013-01-13 17:57:00,
2013-01-13 12:02:00,20.6,14.6,30.17,West,267,1.0,3.0,77,0.00,,,0.00,VWS V14.01,2013-01-13 18:02:00,
2013-01-13 12:07:00,20.7,14.6,30.17,WNW,289,4.0,11.0,77,0.00,,,0.00,VWS V14.01,2013-01-13 18:07:00,
2013-01-13 12:12:00,20.6,13.9,30.17,WNW,294,7.0,11.0,75,0.00,,,0.00,VWS V14.01,2013-01-13 18:12:00,
2013-01-13 12:17:00,20.5,13.9,30.18,WSW,257,2.0,13.0,75,0.00,,,0.00,VWS V14.01,2013-01-13 18:17:00,
2013-01-13 12:22:00,20.7,14.6,30.17,WNW,282,7.0,13.0,77,0.00,,,0.00,VWS V14.01,2013-01-13 18:22:00,
2013-01-13 12:27:00,20.6,13.3,30.17,West,271,6.0,13.0,73,0.00,,,0.00,VWS V14.01,2013-01-13 18:27:00,
2013-01-13 12:32:00,20.4,13.1,30.17,West,279,1.0,8.0,73,0.00,,,0.00,VWS V14.01,2013-01-13 18:32:00,
2013-01-13 12:37:00,20.7,14.0,30.17,NW,319,6.0,8.0,75,0.00,,,0.00,VWS V14.01,2013-01-13 18:37:00,
2013-01-13 12:42:00,20.7,13.1,30.17,WNW,300,6.0,15.0,72,0.00,,,0.00,VWS V14.01,2013-01-13 18:42:00,
2013-01-13 12:47:00,20.7,13.7,30.17,WNW,300,6.0,15.0,74,0.00,,,0.00,VWS V14.01,2013-01-13 18:47:00,
2013-01-13 12:52:00,21.1,14.4,30.17,SSW,209,2.0,15.0,75,0.00,,,0.00,VWS V14.01,2013-01-13 18:52:00,
2013-01-13 12:57:00,21.5,14.2,30.17,WSW,251,6.0,15.0,73,0.00,,,0.00,VWS V14.01,2013-01-13 18:57:00,
2013-01-13 13:02:00,21.4,13.8,30.17,North,5,3.0,9.0,72,0.00,,,0.00,VWS V14.01,2013-01-13 19:02:00,
2013-01-13 13:07:00,21.2,13.6,30.17,WNW,285,6.0,12.0,72,0.00,,,0.00,VWS V14.01,2013-01-13 19:07:00,
2013-01-13 13:12:00,21.2,13.6,30.17,SW,217,4.0,14.0,72,0.00,,,0.00,VWS V14.01,2013-01-13 19:12:00,
2013-01-13 13:17:00,21.4,14.4,30.17,WNW,298,1.0,14.0,74,0.00,,,0.00,VWS V14.01,2013-01-13 19:17:00,
2013-01-13 13:22:00,21.6,13.7,30.17,WNW,302,4.0,14.0,71,0.00,,,0.00,VWS V14.01,2013-01-13 19:22:00,
2013-01-13 13:27:00,21.7,14.1,30.17,WNW,299,5.0,14.0,72,0.00,,,0.00,VWS V14.01,2013-01-13 19:27:00,
2013-01-13 13:32:00,22.0,14.4,30.17,West,273,14.0,14.0,72,0.00,,,0.00,VWS V14.01,2013-01-13 19:32:00,
2013-01-13 13:37:00,21.9,13.6,30.17,WNW,292,5.0,16.0,70,0.00,,,0.00,VWS V14.01,2013-01-13 19:37:00,
2013-01-13 13:42:00,21.9,13.3,30.18,West,269,7.0,16.0,69,0.00,,,0.00,VWS V14.01,2013-01-13 19:42:00,
2013-01-13 13:47:00,21.6,13.3,30.18,SW,226,5.0,16.0,70,0.00,,,0.00,VWS V14.01,2013-01-13 19:47:00,
2013-01-13 13:52:00,21.8,13.5,30.18,WNW,295,6.0,16.0,70,0.00,,,0.00,VWS V14.01,2013-01-13 19:52:00,
2013-01-13 13:57:00,21.8,13.5,30.18,WNW,299,2.0,16.0,70,0.00,,,0.00,VWS V14.01,2013-01-13 19:57:00,
2013-01-13 14:02:00,22.2,14.9,30.19,East,90,1.0,5.0,73,0.00,,,0.00,VWS V14.01,2013-01-13 20:02:00,
2013-01-13 14:07:00,22.7,14.1,30.19,West,281,7.0,15.0,69,0.00,,,0.00,VWS V14.01,2013-01-13 20:07:00,
2013-01-13 14:12:00,22.5,13.6,30.19,West,266,6.0,15.0,68,0.00,,,0.00,VWS V14.01,2013-01-13 20:12:00,
2013-01-13 14:17:00,22.5,13.6,30.19,WNW,295,6.0,15.0,68,0.00,,,0.00,VWS V14.01,2013-01-13 20:17:00,
2013-01-13 14:22:00,22.6,13.3,30.19,WNW,295,2.0,15.0,67,0.00,,,0.00,VWS V14.01,2013-01-13 20:22:00,
2013-01-13 14:27:00,22.7,13.4,30.19,WSW,242,12.0,15.0,67,0.00,,,0.00,VWS V14.01,2013-01-13 20:27:00,
2013-01-13 14:32:00,22.6,13.0,30.20,West,275,9.0,13.0,66,0.00,,,0.00,VWS V14.01,2013-01-13 20:32:00,
2013-01-13 14:37:00,22.8,13.2,30.20,West,280,6.0,14.0,66,0.00,,,0.00,VWS V14.01,2013-01-13 20:37:00,
2013-01-13 14:43:00,22.7,13.4,30.21,WNW,293,7.0,14.0,67,0.00,,,0.00,VWS V14.01,2013-01-13 20:43:00,
2013-01-13 14:48:00,22.7,13.1,30.21,WNW,296,4.0,14.0,66,0.00,,,0.00,VWS V14.01,2013-01-13 20:48:00,
2013-01-13 14:53:00,23.0,14.0,30.21,NW,308,5.0,14.0,68,0.00,,,0.00,VWS V14.01,2013-01-13 20:53:00,
2013-01-13 14:58:00,23.2,13.9,30.22,West,265,6.0,14.0,67,0.00,,,0.00,VWS V14.01,2013-01-13 20:58:00,
2013-01-13 15:03:00,23.3,14.0,30.22,NW,310,4.0,14.0,67,0.00,,,0.00,VWS V14.01,2013-01-13 21:03:00,
2013-01-13 15:08:00,23.3,14.3,30.23,West,263,7.0,14.0,68,0.00,,,0.00,VWS V14.01,2013-01-13 21:08:00,
2013-01-13 15:13:00,23.4,14.1,30.23,WNW,284,4.0,14.0,67,0.00,,,0.00,VWS V14.01,2013-01-13 21:13:00,
2013-01-13 15:18:00,23.4,14.8,30.24,WNW,290,5.0,16.0,69,0.00,,,0.00,VWS V14.01,2013-01-13 21:18:00,
2013-01-13 15:23:00,23.4,14.4,30.24,WSW,257,1.0,19.0,68,0.00,,,0.00,VWS V14.01,2013-01-13 21:23:00,
2013-01-13 15:28:00,23.5,13.8,30.24,West,273,5.0,19.0,66,0.00,,,0.00,VWS V14.01,2013-01-13 21:28:00,
2013-01-13 15:33:00,23.6,14.6,30.24,WSW,252,5.0,6.0,68,0.00,,,0.00,VWS V14.01,2013-01-13 21:33:00,
2013-01-13 15:38:00,23.6,13.9,30.24,WSW,239,4.0,14.0,66,0.00,,,0.00,VWS V14.01,2013-01-13 21:38:00,
2013-01-13 15:43:00,23.7,14.0,30.24,WSW,258,10.0,14.0,66,0.00,,,0.00,VWS V14.01,2013-01-13 21:43:00,
2013-01-13 15:48:00,23.8,14.8,30.24,West,266,10.0,14.0,68,0.00,,,0.00,VWS V14.01,2013-01-13 21:48:00,
2013-01-13 15:53:00,23.7,14.7,30.25,WSW,248,3.0,14.0,68,0.00,,,0.00,VWS V14.01,2013-01-13 21:53:00,
2013-01-13 15:58:00,23.7,14.4,30.25,NW,306,2.0,14.0,67,0.00,,,0.00,VWS V14.01,2013-01-13 21:58:00,
2013-01-13 16:03:00,23.6,14.6,30.26,NW,313,9.0,11.0,68,0.00,,,0.00,VWS V14.01,2013-01-13 22:03:00,
2013-01-13 16:08:00,23.5,14.5,30.26,NW,306,5.0,11.0,68,0.00,,,0.00,VWS V14.01,2013-01-13 22:08:00,
2013-01-13 16:13:00,23.5,14.2,30.27,West,278,1.0,11.0,67,0.00,,,0.00,VWS V14.01,2013-01-13 22:13:00,
2013-01-13 16:18:00,23.5,14.5,30.27,West,271,5.0,11.0,68,0.00,,,0.00,VWS V14.01,2013-01-13 22:18:00,
2013-01-13 16:23:00,23.6,14.3,30.27,WSW,256,4.0,12.0,67,0.00,,,0.00,VWS V14.01,2013-01-13 22:23:00,
2013-01-13 16:28:00,23.5,14.2,30.27,WNW,297,6.0,12.0,67,0.00,,,0.00,VWS V14.01,2013-01-13 22:28:00,
2013-01-13 16:33:00,23.4,14.1,30.28,West,263,4.0,8.0,67,0.00,,,0.00,VWS V14.01,2013-01-13 22:33:00,
2013-01-13 16:38:00,23.4,14.4,30.28,WNW,294,2.0,8.0,68,0.00,,,0.00,VWS V14.01,2013-01-13 22:38:00,
2013-01-13 16:43:00,23.4,14.1,30.28,WNW,290,4.0,8.0,67,0.00,,,0.00,VWS V14.01,2013-01-13 22:43:00,
2013-01-13 16:48:00,23.2,13.9,30.28,West,262,2.0,8.0,67,0.00,,,0.00,VWS V14.01,2013-01-13 22:48:00,
2013-01-13 16:53:00,23.1,14.1,30.28,WNW,284,1.0,8.0,68,0.00,,,0.00,VWS V14.01,2013-01-13 22:53:00,
2013-01-13 16:58:00,23.0,14.0,30.28,WSW,254,3.0,8.0,68,0.00,,,0.00,VWS V14.01,2013-01-13 22:58:00,
2013-01-13 17:03:00,22.8,13.8,30.28,WNW,302,6.0,11.0,68,0.00,,,0.00,VWS V14.01,2013-01-13 23:03:00,
2013-01-13 17:08:00,22.7,13.7,30.29,WSW,246,2.0,11.0,68,0.00,,,0.00,VWS V14.01,2013-01-13 23:08:00,
2013-01-13 17:13:00,22.6,14.0,30.28,WSW,246,1.0,11.0,69,0.00,,,0.00,VWS V14.01,2013-01-13 23:13:00,
2013-01-13 17:18:00,22.5,13.9,30.29,West,271,0.0,11.0,69,0.00,,,0.00,VWS V14.01,2013-01-13 23:18:00,
2013-01-13 17:23:00,22.4,13.8,30.29,West,271,0.0,11.0,69,0.00,,,0.00,VWS V14.01,2013-01-13 23:23:00,
2013-01-13 17:28:00,22.2,13.9,30.29,West,271,0.0,11.0,70,0.00,,,0.00,VWS V14.01,2013-01-13 23:28:00,
2013-01-13 17:33:00,22.1,13.8,30.29,West,271,0.0,0.0,70,0.00,,,0.00,VWS V14.01,2013-01-13 23:33:00,
2013-01-13 17:38:00,22.0,14.1,30.29,West,271,0.0,0.0,71,0.00,,,0.00,VWS V14.01,2013-01-13 23:38:00,
2013-01-13 17:43:00,21.8,14.2,30.29,West,271,0.0,0.0,72,0.00,,,0.00,VWS V14.01,2013-01-13 23:43:00,
2013-01-13 17:48:00,21.6,14.0,30.30,West,271,0.0,0.0,72,0.00,,,0.00,VWS V14.01,2013-01-13 23:48:00,
2013-01-13 17:53:00,21.3,14.0,30.29,West,271,0.0,0.0,73,0.00,,,0.00,VWS V14.01,2013-01-13 23:53:00,
2013-01-13 17:58:00,21.1,14.1,30.29,West,271,0.0,0.0,74,0.00,,,0.00,VWS V14.01,2013-01-13 23:58:00,
2013-01-13 18:03:00,20.8,14.1,30.30,West,271,0.0,0.0,75,0.00,,,0.00,VWS V14.01,2013-01-14 00:03:00,
2013-01-13 18:08:00,20.6,14.2,30.30,West,271,0.0,1.0,76,0.00,,,0.00,VWS V14.01,2013-01-14 00:08:00,
2013-01-13 18:13:00,20.4,14.1,30.30,West,271,2.0,2.0,76,0.00,,,0.00,VWS V14.01,2013-01-14 00:13:00,
2013-01-13 18:18:00,20.1,14.1,30.30,West,271,0.0,2.0,77,0.00,,,0.00,VWS V14.01,2013-01-14 00:18:00,
2013-01-13 18:23:00,19.9,13.9,30.30,West,271,0.0,2.0,77,0.00,,,0.00,VWS V14.01,2013-01-14 00:23:00,
2013-01-13 18:28:00,19.7,14.0,30.31,West,271,0.0,2.0,78,0.00,,,0.00,VWS V14.01,2013-01-14 00:28:00,
2013-01-13 18:33:00,19.5,14.1,30.31,West,271,0.0,0.0,79,0.00,,,0.00,VWS V14.01,2013-01-14 00:33:00,
2013-01-13 18:38:00,19.3,13.9,30.31,West,271,0.0,0.0,79,0.00,,,0.00,VWS V14.01,2013-01-14 00:38:00,
2013-01-13 18:43:00,19.2,13.8,30.32,West,271,0.0,0.0,79,0.00,,,0.00,VWS V14.01,2013-01-14 00:43:00,
2013-01-13 18:48:00,19.2,14.1,30.33,West,271,0.0,0.0,80,0.00,,,0.00,VWS V14.01,2013-01-14 00:48:00,
2013-01-13 18:53:00,19.1,14.0,30.33,West,271,0.0,0.0,80,0.00,,,0.00,VWS V14.01,2013-01-14 00:53:00,
2013-01-13 18:58:00,19.0,13.9,30.33,West,271,0.0,1.0,80,0.00,,,0.00,VWS V14.01,2013-01-14 00:58:00,
2013-01-13 19:03:00,19.0,13.9,30.33,West,271,0.0,0.0,80,0.00,,,0.00,VWS V14.01,2013-01-14 01:03:00,
2013-01-13 19:08:00,18.9,13.8,30.33,West,271,0.0,0.0,80,0.00,,,0.00,VWS V14.01,2013-01-14 01:08:00,
2013-01-13 19:13:00,18.8,13.7,30.33,West,271,0.0,0.0,80,0.00,,,0.00,VWS V14.01,2013-01-14 01:13:00,
2013-01-13 19:18:00,18.7,13.6,30.33,West,271,0.0,0.0,80,0.00,,,0.00,VWS V14.01,2013-01-14 01:18:00,
2013-01-13 19:23:00,18.6,13.5,30.33,West,271,0.0,0.0,80,0.00,,,0.00,VWS V14.01,2013-01-14 01:23:00,
2013-01-13 19:28:00,18.6,13.5,30.33,West,271,0.0,0.0,80,0.00,,,0.00,VWS V14.01,2013-01-14 01:28:00,
2013-01-13 19:33:00,18.5,13.4,30.33,West,271,0.0,0.0,80,0.00,,,0.00,VWS V14.01,2013-01-14 01:33:00,
2013-01-13 19:38:00,18.4,13.3,30.33,West,271,0.0,0.0,80,0.00,,,0.00,VWS V14.01,2013-01-14 01:38:00,
2013-01-13 19:43:00,18.3,13.2,30.33,West,271,0.0,1.0,80,0.00,,,0.00,VWS V14.01,2013-01-14 01:43:00,
2013-01-13 19:48:00,18.2,13.1,30.33,West,271,0.0,1.0,80,0.00,,,0.00,VWS V14.01,2013-01-14 01:48:00,
2013-01-13 19:53:00,18.2,13.4,30.33,West,271,0.0,1.0,81,0.00,,,0.00,VWS V14.01,2013-01-14 01:53:00,
2013-01-13 19:58:00,18.1,13.3,30.33,West,271,0.0,1.0,81,0.00,,,0.00,VWS V14.01,2013-01-14 01:58:00,
2013-01-13 20:03:00,18.1,13.3,30.33,West,271,0.0,0.0,81,0.00,,,0.00,VWS V14.01,2013-01-14 02:03:00,
2013-01-13 20:08:00,18.0,13.2,30.33,West,271,0.0,0.0,81,0.00,,,0.00,VWS V14.01,2013-01-14 02:08:00,
2013-01-13 20:13:00,17.9,13.1,30.33,West,271,0.0,0.0,81,0.00,,,0.00,VWS V14.01,2013-01-14 02:13:00,
2013-01-13 20:18:00,17.8,13.0,30.33,West,271,0.0,0.0,81,0.00,,,0.00,VWS V14.01,2013-01-14 02:18:00,
2013-01-13 20:23:00,17.7,12.9,30.34,West,271,0.0,0.0,81,0.00,,,0.00,VWS V14.01,2013-01-14 02:23:00,
2013-01-13 20:28:00,17.6,12.8,30.33,West,271,0.0,0.0,81,0.00,,,0.00,VWS V14.01,2013-01-14 02:28:00,
2013-01-13 20:33:00,17.5,12.7,30.33,West,271,0.0,0.0,81,0.00,,,0.00,VWS V14.01,2013-01-14 02:33:00,
2013-01-13 20:38:00,17.4,12.6,30.33,West,271,0.0,0.0,81,0.00,,,0.00,VWS V14.01,2013-01-14 02:38:00,
2013-01-13 20:43:00,17.3,12.5,30.33,West,271,0.0,0.0,81,0.00,,,0.00,VWS V14.01,2013-01-14 02:43:00,
2013-01-13 20:48:00,17.1,12.3,30.33,West,271,0.0,0.0,81,0.00,,,0.00,VWS V14.01,2013-01-14 02:48:00,
2013-01-13 20:53:00,17.1,12.6,30.33,West,271,0.0,0.0,82,0.00,,,0.00,VWS V14.01,2013-01-14 02:53:00,
2013-01-13 20:58:00,17.1,12.6,30.33,West,271,0.0,0.0,82,0.00,,,0.00,VWS V14.01,2013-01-14 02:58:00,
2013-01-13 21:03:00,17.1,12.6,30.33,West,271,0.0,0.0,82,0.00,,,0.00,VWS V14.01,2013-01-14 03:03:00,
2013-01-13 21:08:00,17.1,12.6,30.33,West,271,0.0,0.0,82,0.00,,,0.00,VWS V14.01,2013-01-14 03:08:00,
2013-01-13 21:14:00,17.2,12.7,30.33,West,271,0.0,1.0,82,0.00,,,0.00,VWS V14.01,2013-01-14 03:14:00,
2013-01-13 21:19:00,17.2,12.7,30.33,West,271,0.0,1.0,82,0.00,,,0.00,VWS V14.01,2013-01-14 03:19:00,
2013-01-13 21:24:00,17.3,12.5,30.33,West,271,0.0,1.0,81,0.00,,,0.00,VWS V14.01,2013-01-14 03:24:00,
2013-01-13 21:29:00,17.3,12.5,30.33,West,271,1.0,1.0,81,0.00,,,0.00,VWS V14.01,2013-01-14 03:29:00,
2013-01-13 21:34:00,17.6,12.5,30.33,West,271,0.0,2.0,80,0.00,,,0.00,VWS V14.01,2013-01-14 03:34:00,
2013-01-13 21:39:00,17.9,12.2,30.33,West,271,1.0,2.0,78,0.00,,,0.00,VWS V14.01,2013-01-14 03:39:00,
2013-01-13 21:44:00,18.1,12.4,30.33,West,271,0.0,2.0,78,0.00,,,0.00,VWS V14.01,2013-01-14 03:44:00,
2013-01-13 21:49:00,18.2,12.5,30.33,West,271,0.0,2.0,78,0.00,,,0.00,VWS V14.01,2013-01-14 03:49:00,
2013-01-13 21:54:00,18.3,12.3,30.34,West,271,0.0,2.0,77,0.00,,,0.00,VWS V14.01,2013-01-14 03:54:00,
2013-01-13 21:59:00,18.3,12.0,30.34,West,271,0.0,2.0,76,0.00,,,0.00,VWS V14.01,2013-01-14 03:59:00,
2013-01-13 22:04:00,18.4,12.1,30.34,West,271,2.0,4.0,76,0.00,,,0.00,VWS V14.01,2013-01-14 04:04:00,
2013-01-13 22:09:00,18.5,12.2,30.34,West,271,0.0,4.0,76,0.00,,,0.00,VWS V14.01,2013-01-14 04:09:00,
2013-01-13 22:14:00,18.5,11.9,30.35,West,271,0.0,4.0,75,0.00,,,0.00,VWS V14.01,2013-01-14 04:14:00,
2013-01-13 22:19:00,18.6,12.0,30.36,West,271,0.0,4.0,75,0.00,,,0.00,VWS V14.01,2013-01-14 04:19:00,
2013-01-13 22:29:00,18.2,11.9,30.36,West,271,0.0,4.0,76,0.00,,,0.00,VWS V14.01,2013-01-14 04:29:00,
2013-01-13 22:34:00,17.9,11.9,30.36,West,271,0.0,2.0,77,0.00,,,0.00,VWS V14.01,2013-01-14 04:34:00,
2013-01-13 22:39:00,17.6,11.9,30.37,West,271,0.0,2.0,78,0.00,,,0.00,VWS V14.01,2013-01-14 04:39:00,
2013-01-13 22:44:00,17.3,11.9,30.37,West,271,0.0,4.0,79,0.00,,,0.00,VWS V14.01,2013-01-14 04:44:00,
2013-01-13 22:49:00,17.1,12.0,30.37,West,271,0.0,4.0,80,0.00,,,0.00,VWS V14.01,2013-01-14 04:49:00,
2013-01-13 22:54:00,17.0,11.6,30.37,West,271,0.0,4.0,79,0.00,,,0.00,VWS V14.01,2013-01-14 04:54:00,
2013-01-13 22:59:00,16.8,11.7,30.37,West,271,1.0,4.0,80,0.00,,,0.00,VWS V14.01,2013-01-14 04:59:00,
2013-01-13 23:04:00,16.7,11.6,30.37,West,271,0.0,1.0,80,0.00,,,0.00,VWS V14.01,2013-01-14 05:04:00,
2013-01-13 23:09:00,16.6,11.8,30.38,West,271,0.0,1.0,81,0.00,,,0.00,VWS V14.01,2013-01-14 05:09:00,
2013-01-13 23:14:00,16.4,11.6,30.38,West,271,0.0,1.0,81,0.00,,,0.00,VWS V14.01,2013-01-14 05:14:00,
2013-01-13 23:19:00,16.3,11.5,30.38,West,271,0.0,1.0,81,0.00,,,0.00,VWS V14.01,2013-01-14 05:19:00,
2013-01-13 23:24:00,16.3,11.8,30.39,West,271,0.0,1.0,82,0.00,,,0.00,VWS V14.01,2013-01-14 05:24:00,
2013-01-13 23:29:00,16.2,11.7,30.39,West,271,0.0,1.0,82,0.00,,,0.00,VWS V14.01,2013-01-14 05:29:00,
2013-01-13 23:34:00,16.1,11.6,30.40,West,271,0.0,0.0,82,0.00,,,0.00,VWS V14.01,2013-01-14 05:34:00,
2013-01-13 23:39:00,16.0,11.5,30.41,West,271,0.0,0.0,82,0.00,,,0.00,VWS V14.01,2013-01-14 05:39:00,
2013-01-13 23:44:00,15.9,11.4,30.41,West,271,0.0,0.0,82,0.00,,,0.00,VWS V14.01,2013-01-14 05:44:00,
2013-01-13 23:49:00,15.9,11.4,30.41,West,271,0.0,0.0,82,0.00,,,0.00,VWS V14.01,2013-01-14 05:49:00,
2013-01-13 23:54:00,15.8,11.3,30.41,West,271,0.0,0.0,82,0.00,,,0.00,VWS V14.01,2013-01-14 05:54:00,
2013-01-13 23:59:00,15.7,11.2,30.41,West,271,0.0,1.0,82,0.00,,,0.00,VWS V14.01,2013-01-14 05:59:00,